Location: Dampvalley
(47.9094°N, 6.1967°E)
Time: 16:00:41
(UTC+00:00)

Cosmos 2074 Rocket - Pass Details

Date: 05 March 2021
Orbit: 967 x 986 km, 82.9° (Epoch: 17 April)

Event Time Altitude Azimuth Distance (km) Brightness Sun altitude
Rises 04:51:34 0° 350° (N) 3,676 7.0 -13.7°
Reaches altitude 10° 04:54:05 10° 351° (N) 2,722 6.3 -13.2°
Maximum altitude 05:00:20 89° 82° (E) 975 4.0 -12.2°
Drops below altitude 10° 05:06:32 10° 173° (S) 2,700 6.4 -11.2°
Sets 05:09:01 0° 173° (S) 3,643 7.1 -10.7°
